NOAA 16 DEB

Satellite information

Favourite Embed

Satellite Type and Status

DEBRISIN ORBIT

Key statistics

Satellite NOAA 16 DEB at a glance.

Uptime

9118

Days in orbit

Revolutions

≈ 14.7

Per day

Orbit

SSO

Sun Synchronous Orbit

Inclination

98.9

Latest

Satellite identification and parameters

Extended collection of information and parameters for NOAA 16 DEB.

Object identification

Identified? True

Debris? True

Object name: NOAA 16 DEB

International designator: 2000-055JG

Object number (NORAD): 41363

Object ID (CCSDS): 41363

Country: UNITED STATES OF AMERICA (US)

Current information (Y/N): Y

RCS size: SMALL

Orbital parameters

Period: 98.065 minutes

Inclination: 98.9131 deg

SMA: 7044.271 km

Apoapsis: 677.062 km

Periapsis: 655.21 km

RAAN: 67.7503 deg

Eccentricy: 0.00155102

Argument of periapsis: 193.6895 deg

Mean anomaly: 166.3889 deg

Mean motion: 14.68414588 rev/day

Mean motion (dot): 0.00038326 rev/day2

B* drag term: 0.0065865219 1/REarth

Two-line elements (TLE)

Creation date: Sept. 7, 2025, 3:09 a.m.

Reference frame: TEME

Reference center: EARTH

Epoch: Sept. 6, 2025, 10:54 a.m. UTC

TLE line 0: 0 NOAA 16 DEB

TLE line 1: 1 41363U 00055JG 25249.45417007 .00038326 00000-0 65865-2 0 9991

TLE line 2: 2 41363 98.9131 67.7503 0015510 193.6895 166.3889 14.68414588499148

Live tracking on map

Real-time ground track for satellite NOAA 16 DEB.

In-orbit conjunctions

A list of the most updated potential collisions computed for object NOAA 16 DEB.

Target Orbit TCA Probability of collision Miss distance Type
COSMOS 2251 DEB LEO 2024-11-11 19:36:31 0.0005930623 440.0 (m) DEBRIS
FENGYUN 1C DEB SSO 2024-11-10 18:51:11 0.0009510174 274.0 (m) DEBRIS

Associated space launch

The NOAA K, L and M POES satellites begin the fifth generation of improved environmental monitoring in support of NOAA missions. The instrument payload has significant improvements and additions/deletions. The instrument changes have effected the spacecraft subsystems and data formats.

NOAA 16 DEB was lifted into orbit during the mission ‘Titan II SLV | NOAA 16’, on board a Titan II SLV space rocket.

The launch took place on Sept. 21, 2000, 10:22 a.m. from Space Launch Complex 4W.

For more information about the launch, click the button.

Launch to space Titan II SLV | NOAA 16
Titan II SLV | NOAA 16

Agency: N/A

Status: Launch Successful

Launch date: Sept. 21, 2000, 10:22 a.m. UTC

Rocket: Titan II SLV

Launch pad: Space Launch Complex 4W

Location: Vandenberg SFB, CA, USA

...

Latest news about this satellite

There are no fresh news available about this satellite. Check back as we update our databases every day.


Newsletter sign-up

Weekly statistics, charts and insights to help you stay on top of the space industry.